RYR70QD LOWW-EBCI

Flight info

Callsign RYR70QD
Flight time 1h 17m
Altitude 34000
Route MEDIX DCT LAMSI/N0446F360 DCT MOOCE DCT TEKTU DCT TESGA DCT UMUPU T880 ADMUM/N0369F240 T880 BATTY
Aircraft B738/M-SDE2E3FGHIRWXY/LB1

Departure

Time 2026-04-22 11:55
Airport Vienna International Airport (LOWW)

Arrival

Time 2026-04-22 13:12
Airport Brussels South Charleroi Airport (EBCI)
Time Latitude Longitude Altitude Speed Heading
2026-04-22 11:41 48.11619 16.56576 607 ft 0 kts 205°
2026-04-22 11:50 48.11612 16.56572 618 ft 0 kts 205°
2026-04-22 11:50 48.11597 16.56561 608 ft 7 kts 205°
2026-04-22 11:50 48.11548 16.56605 610 ft 11 kts 77°
2026-04-22 11:51 48.11493 16.56724 612 ft 19 kts 128°
2026-04-22 11:51 48.11421 16.56914 622 ft 21 kts 116°
2026-04-22 11:51 48.11355 16.57114 615 ft 25 kts 116°
2026-04-22 11:51 48.11287 16.57324 618 ft 24 kts 116°
2026-04-22 11:52 48.11208 16.57565 616 ft 27 kts 116°
2026-04-22 11:52 48.11129 16.57806 609 ft 28 kts 115°
2026-04-22 11:52 48.11000 16.57954 618 ft 24 kts 165°
2026-04-22 11:52 48.10836 16.58028 611 ft 24 kts 161°
2026-04-22 11:53 48.10679 16.58088 624 ft 20 kts 165°
2026-04-22 11:53 48.10532 16.58148 611 ft 23 kts 163°
2026-04-22 11:53 48.10370 16.58222 611 ft 27 kts 164°
2026-04-22 11:53 48.10200 16.58293 615 ft 22 kts 164°
2026-04-22 11:54 48.10142 16.58400 626 ft 15 kts 31°
2026-04-22 11:54 48.10266 16.58453 609 ft 22 kts 13°
2026-04-22 11:54 48.10474 16.58448 614 ft 59 kts 346°
2026-04-22 11:54 48.11123 16.58171 615 ft 133 kts 343°
2026-04-22 11:55 48.12128 16.57745 1103 ft 158 kts 343°
2026-04-22 11:55 48.13239 16.57227 1953 ft 175 kts 344°
2026-04-22 11:55 48.14399 16.56519 2674 ft 187 kts 321°
2026-04-22 11:55 48.15084 16.54839 3331 ft 198 kts 285°
2026-04-22 11:56 48.15010 16.52727 3819 ft 219 kts 253°
2026-04-22 11:56 48.14076 16.50719 4039 ft 254 kts 227°
2026-04-22 11:56 48.12727 16.48829 4581 ft 271 kts 230°
2026-04-22 11:56 48.11801 16.45611 5610 ft 266 kts 272°
2026-04-22 11:57 48.12289 16.40142 7362 ft 268 kts 282°
2026-04-22 11:57 48.12889 16.34643 9028 ft 276 kts 283°
2026-04-22 11:57 48.13507 16.28853 10481 ft 290 kts 283°
2026-04-22 11:57 48.14181 16.22443 11158 ft 330 kts 282°
2026-04-22 11:58 48.15195 16.15614 12483 ft 342 kts 289°
2026-04-22 11:58 48.16580 16.08704 13953 ft 351 kts 290°
2026-04-22 11:58 48.17990 16.01601 15303 ft 360 kts 289°
2026-04-22 11:58 48.19371 15.94451 16531 ft 370 kts 289°
2026-04-22 11:59 48.20798 15.86949 17857 ft 378 kts 289°
2026-04-22 11:59 48.22245 15.79282 19049 ft 387 kts 289°
2026-04-22 11:59 48.23718 15.71447 20218 ft 393 kts 289°
2026-04-22 11:59 48.25210 15.63474 21327 ft 400 kts 289°
2026-04-22 12:00 48.26723 15.55359 22406 ft 407 kts 289°
2026-04-22 12:00 48.28257 15.47097 23437 ft 414 kts 289°
2026-04-22 12:00 48.29822 15.38691 24346 ft 420 kts 290°
2026-04-22 12:00 48.31534 15.30276 25262 ft 423 kts 291°
2026-04-22 12:01 48.33302 15.21780 26068 ft 428 kts 291°
2026-04-22 12:01 48.35066 15.13194 26898 ft 432 kts 290°
2026-04-22 12:01 48.36812 15.04602 27664 ft 437 kts 290°
2026-04-22 12:01 48.38533 14.96071 28405 ft 442 kts 290°
2026-04-22 12:02 48.40323 14.87160 29128 ft 446 kts 290°
2026-04-22 12:02 48.42116 14.78186 29944 ft 447 kts 290°
2026-04-22 12:02 48.43883 14.69291 30931 ft 442 kts 290°
2026-04-22 12:02 48.45644 14.60408 31606 ft 442 kts 290°
2026-04-22 12:03 48.47391 14.51549 32447 ft 439 kts 290°
2026-04-22 12:03 48.49123 14.42728 33120 ft 439 kts 290°
2026-04-22 12:03 48.50838 14.33950 33991 ft 432 kts 289°
2026-04-22 12:03 48.52534 14.25238 34332 ft 437 kts 289°
2026-04-22 12:04 48.56003 14.07292 34266 ft 446 kts 289°
2026-04-22 12:04 48.59341 13.89828 34240 ft 426 kts 289°
2026-04-22 12:05 48.62569 13.72823 34279 ft 425 kts 289°
2026-04-22 12:05 48.66396 13.55758 34259 ft 430 kts 305°
2026-04-22 12:06 48.73315 13.40967 34261 ft 430 kts 308°
2026-04-22 12:06 48.80099 13.26364 34259 ft 419 kts 308°
2026-04-22 12:07 48.86735 13.11922 34278 ft 418 kts 308°
2026-04-22 12:07 48.92270 12.99820 34288 ft 426 kts 308°
2026-04-22 12:08 48.99022 12.84977 34278 ft 431 kts 307°
2026-04-22 12:08 49.05739 12.70119 34260 ft 420 kts 307°
2026-04-22 12:09 49.12325 12.55485 34297 ft 419 kts 307°
2026-04-22 12:09 49.18968 12.40646 34289 ft 428 kts 307°
2026-04-22 12:10 49.25710 12.25488 34287 ft 431 kts 307°
2026-04-22 12:10 49.32369 12.10430 34269 ft 420 kts 307°
2026-04-22 12:11 49.38343 11.96859 34297 ft 418 kts 307°
2026-04-22 12:11 49.41624 11.89379 34300 ft 429 kts 307°
2026-04-22 12:12 49.44987 11.81688 34544 ft 435 kts 307°
2026-04-22 12:12 49.46669 11.77825 34846 ft 434 kts 307°
2026-04-22 12:12 49.48346 11.73972 35136 ft 433 kts 307°
2026-04-22 12:13 49.50021 11.70120 35340 ft 434 kts 307°
2026-04-22 12:13 49.51675 11.66310 35586 ft 433 kts 307°
2026-04-22 12:13 49.53351 11.62446 35831 ft 433 kts 307°
2026-04-22 12:13 49.55024 11.58584 36051 ft 433 kts 307°
2026-04-22 12:14 49.56686 11.54718 36261 ft 434 kts 305°
2026-04-22 12:14 49.58212 11.50666 36277 ft 439 kts 301°
2026-04-22 12:14 49.61008 11.42295 36292 ft 438 kts 300°
2026-04-22 12:15 49.63729 11.33930 36295 ft 434 kts 300°
2026-04-22 12:15 49.66458 11.25646 36302 ft 432 kts 300°
2026-04-22 12:16 49.69197 11.17402 36286 ft 431 kts 300°
2026-04-22 12:16 49.71935 11.09161 36305 ft 431 kts 300°
2026-04-22 12:17 49.74678 11.00881 36311 ft 433 kts 300°
2026-04-22 12:17 49.77395 10.92648 36306 ft 436 kts 300°
2026-04-22 12:18 49.80136 10.84314 36309 ft 438 kts 300°
2026-04-22 12:18 49.82899 10.75884 36328 ft 440 kts 300°
2026-04-22 12:19 49.85667 10.67409 36330 ft 441 kts 300°
2026-04-22 12:19 49.88436 10.58901 36323 ft 442 kts 300°
2026-04-22 12:20 49.91200 10.50380 36322 ft 441 kts 300°
2026-04-22 12:20 49.93949 10.41877 36320 ft 440 kts 300°
2026-04-22 12:21 49.96685 10.33384 36319 ft 438 kts 300°
2026-04-22 12:21 49.99404 10.24918 36325 ft 437 kts 300°
2026-04-22 12:22 50.02107 10.16473 36328 ft 436 kts 300°
2026-04-22 12:22 50.04782 10.08086 36305 ft 435 kts 299°
2026-04-22 12:23 50.07429 9.99761 36319 ft 435 kts 299°
2026-04-22 12:23 50.10102 9.91323 36320 ft 434 kts 299°
2026-04-22 12:24 50.12772 9.82870 36318 ft 435 kts 299°
2026-04-22 12:24 50.17274 9.68545 36317 ft 435 kts 299°
2026-04-22 12:25 50.22583 9.51546 36319 ft 436 kts 299°
2026-04-22 12:25 50.27875 9.34482 36318 ft 437 kts 299°
2026-04-22 12:26 50.33161 9.17322 36316 ft 438 kts 298°
2026-04-22 12:26 50.37198 8.99476 36322 ft 442 kts 289°
2026-04-22 12:27 50.40758 8.81005 36324 ft 442 kts 290°
2026-04-22 12:27 50.44372 8.62544 36340 ft 444 kts 289°
2026-04-22 12:28 50.46417 8.43489 36344 ft 448 kts 281°
2026-04-22 12:28 50.47689 8.29958 36334 ft 447 kts 282°
2026-04-22 12:29 50.48622 8.20380 36343 ft 446 kts 282°
2026-04-22 12:29 50.49560 8.10753 36343 ft 446 kts 282°
2026-04-22 12:30 50.50941 7.96392 36340 ft 445 kts 281°
2026-04-22 12:31 50.51855 7.86772 36335 ft 444 kts 281°
2026-04-22 12:31 50.52758 7.77177 36328 ft 443 kts 281°
2026-04-22 12:32 50.53651 7.67601 36337 ft 443 kts 281°
2026-04-22 12:32 50.54533 7.58057 35987 ft 437 kts 281°
2026-04-22 12:32 50.54965 7.53353 35741 ft 431 kts 281°
2026-04-22 12:33 50.55389 7.48719 35494 ft 426 kts 281°
2026-04-22 12:33 50.55805 7.44125 35229 ft 422 kts 281°
2026-04-22 12:33 50.56043 7.39531 34988 ft 422 kts 275°
2026-04-22 12:33 50.56069 7.34930 34754 ft 419 kts 273°
2026-04-22 12:34 50.56049 7.30367 34521 ft 416 kts 273°
2026-04-22 12:34 50.56046 7.25825 34272 ft 414 kts 274°
2026-04-22 12:34 50.56096 7.21320 33988 ft 410 kts 277°
2026-04-22 12:34 50.56326 7.16861 33715 ft 408 kts 279°
2026-04-22 12:35 50.56648 7.12439 33445 ft 406 kts 280°
2026-04-22 12:35 50.56994 7.08032 33180 ft 406 kts 280°
2026-04-22 12:35 50.57337 7.03620 32910 ft 405 kts 280°
2026-04-22 12:35 50.57659 6.99313 32653 ft 405 kts 279°
2026-04-22 12:36 50.57975 6.94912 32372 ft 405 kts 279°
2026-04-22 12:36 50.58278 6.90565 32118 ft 405 kts 279°
2026-04-22 12:36 50.58577 6.86166 31855 ft 404 kts 279°
2026-04-22 12:36 50.58875 6.81707 31599 ft 404 kts 279°
2026-04-22 12:37 50.59162 6.77371 31355 ft 404 kts 279°
2026-04-22 12:37 50.59451 6.72981 31104 ft 403 kts 279°
2026-04-22 12:37 50.59742 6.68535 30849 ft 402 kts 279°
2026-04-22 12:37 50.60023 6.64216 30606 ft 402 kts 279°
2026-04-22 12:38 50.60306 6.59844 30359 ft 401 kts 279°
2026-04-22 12:38 50.60586 6.55485 30065 ft 399 kts 279°
2026-04-22 12:38 50.60864 6.51139 29747 ft 398 kts 279°
2026-04-22 12:38 50.61139 6.46811 29462 ft 397 kts 279°
2026-04-22 12:39 50.61412 6.42494 29172 ft 395 kts 279°
2026-04-22 12:39 50.61949 6.33921 28610 ft 392 kts 278°
2026-04-22 12:39 50.62213 6.29661 28344 ft 390 kts 278°
2026-04-22 12:40 50.62476 6.25404 28068 ft 389 kts 278°
2026-04-22 12:40 50.62737 6.21162 27794 ft 388 kts 278°
2026-04-22 12:40 50.62995 6.16935 27531 ft 387 kts 278°
2026-04-22 12:40 50.63251 6.12719 27266 ft 386 kts 278°
2026-04-22 12:41 50.63504 6.08511 27004 ft 385 kts 278°
2026-04-22 12:41 50.63756 6.04310 26730 ft 384 kts 278°
2026-04-22 12:41 50.64006 6.00112 26477 ft 383 kts 278°
2026-04-22 12:41 50.64248 5.96051 26231 ft 383 kts 278°
2026-04-22 12:42 50.64493 5.91882 25979 ft 381 kts 278°
2026-04-22 12:42 50.64735 5.87743 25712 ft 377 kts 278°
2026-04-22 12:42 50.65207 5.83721 25308 ft 371 kts 295°
2026-04-22 12:42 50.66337 5.80092 24860 ft 369 kts 302°
2026-04-22 12:43 50.67530 5.76514 24455 ft 369 kts 301°
2026-04-22 12:43 50.68715 5.72934 24108 ft 368 kts 301°
2026-04-22 12:43 50.69888 5.69350 23722 ft 367 kts 301°
2026-04-22 12:43 50.71051 5.65767 23332 ft 366 kts 301°
2026-04-22 12:44 50.72185 5.62251 22947 ft 364 kts 301°
2026-04-22 12:44 50.73327 5.58691 22586 ft 361 kts 300°
2026-04-22 12:44 50.74454 5.55167 22250 ft 359 kts 300°
2026-04-22 12:44 50.75573 5.51661 21887 ft 357 kts 300°
2026-04-22 12:45 50.76687 5.48168 21549 ft 355 kts 300°
2026-04-22 12:45 50.77793 5.44694 21224 ft 353 kts 300°
2026-04-22 12:45 50.78892 5.41236 20894 ft 351 kts 300°
2026-04-22 12:45 50.79985 5.37791 20563 ft 350 kts 300°
2026-04-22 12:46 50.81075 5.34353 20224 ft 349 kts 300°
2026-04-22 12:46 50.82158 5.30931 19900 ft 348 kts 300°
2026-04-22 12:46 50.83238 5.27516 19563 ft 347 kts 300°
2026-04-22 12:46 50.84315 5.24104 19234 ft 346 kts 300°
2026-04-22 12:47 50.85388 5.20703 18899 ft 346 kts 300°
2026-04-22 12:47 50.86457 5.17307 18564 ft 345 kts 300°
2026-04-22 12:47 50.87490 5.13875 18170 ft 346 kts 292°
2026-04-22 12:47 50.87927 5.10138 17904 ft 344 kts 275°
2026-04-22 12:48 50.88077 5.06354 17569 ft 343 kts 275°
2026-04-22 12:48 50.88214 5.02584 17238 ft 342 kts 274°
2026-04-22 12:48 50.88352 4.98918 16914 ft 341 kts 275°
2026-04-22 12:48 50.88500 4.95183 16594 ft 339 kts 275°
2026-04-22 12:49 50.88654 4.91461 16276 ft 338 kts 275°
2026-04-22 12:49 50.88812 4.87750 15966 ft 337 kts 275°
2026-04-22 12:49 50.88969 4.84055 15642 ft 335 kts 275°
2026-04-22 12:49 50.89074 4.81609 15421 ft 335 kts 275°
2026-04-22 12:50 50.89281 4.76746 15006 ft 334 kts 275°
2026-04-22 12:50 50.89386 4.74271 14787 ft 333 kts 275°
2026-04-22 12:50 50.89541 4.70611 14473 ft 332 kts 274°
2026-04-22 12:50 50.89743 4.65789 14051 ft 331 kts 274°
2026-04-22 12:51 50.89893 4.62158 13710 ft 330 kts 274°
2026-04-22 12:51 50.89993 4.59707 13501 ft 329 kts 274°
2026-04-22 12:51 50.89945 4.56111 13145 ft 327 kts 256°
2026-04-22 12:51 50.89044 4.52917 12901 ft 318 kts 232°
2026-04-22 12:52 50.87523 4.50447 12591 ft 311 kts 214°
2026-04-22 12:52 50.85804 4.48385 12298 ft 309 kts 213°
2026-04-22 12:52 50.84070 4.46381 11988 ft 307 kts 211°
2026-04-22 12:52 50.82211 4.44780 11664 ft 302 kts 197°
2026-04-22 12:53 50.80219 4.43981 11545 ft 289 kts 184°
2026-04-22 12:53 50.78260 4.43573 11414 ft 281 kts 182°
2026-04-22 12:53 50.76322 4.43213 11149 ft 279 kts 182°
2026-04-22 12:53 50.74393 4.42862 10856 ft 279 kts 182°
2026-04-22 12:54 50.72481 4.42518 10590 ft 274 kts 182°
2026-04-22 12:54 50.70592 4.42179 10121 ft 273 kts 182°
2026-04-22 12:54 50.68708 4.41844 9553 ft 273 kts 182°
2026-04-22 12:54 50.66851 4.41510 9267 ft 258 kts 181°
2026-04-22 12:55 50.65122 4.41181 8950 ft 246 kts 182°
2026-04-22 12:55 50.63426 4.40847 8392 ft 245 kts 182°
2026-04-22 12:55 50.61734 4.40514 7867 ft 243 kts 182°
2026-04-22 12:55 50.60062 4.40189 7374 ft 241 kts 182°
2026-04-22 12:56 50.58406 4.39863 6883 ft 239 kts 182°
2026-04-22 12:56 50.56761 4.39531 6365 ft 238 kts 182°
2026-04-22 12:56 50.55128 4.39179 5901 ft 236 kts 185°
2026-04-22 12:56 50.53594 4.38343 5685 ft 230 kts 204°
2026-04-22 12:57 50.52360 4.36824 5449 ft 225 kts 223°
2026-04-22 12:57 50.51456 4.34816 5077 ft 225 kts 232°
2026-04-22 12:57 50.50619 4.32777 4639 ft 224 kts 232°
2026-04-22 12:57 50.49905 4.30641 4381 ft 220 kts 244°
2026-04-22 12:58 50.49308 4.28468 3980 ft 217 kts 243°
2026-04-22 12:58 50.48626 4.26341 3542 ft 217 kts 240°
2026-04-22 12:58 50.47738 4.24451 3228 ft 212 kts 218°
2026-04-22 12:58 50.46492 4.23397 2924 ft 197 kts 186°
2026-04-22 12:59 50.45188 4.23427 2623 ft 183 kts 158°
2026-04-22 12:59 50.44051 4.24140 2494 ft 171 kts 143°
2026-04-22 12:59 50.43084 4.25122 2539 ft 163 kts 139°
2026-04-22 12:59 50.42253 4.26352 2400 ft 168 kts 117°
2026-04-22 13:00 50.41858 4.28039 2382 ft 163 kts 96°
2026-04-22 13:00 50.41832 4.29742 2207 ft 153 kts 83°
2026-04-22 13:00 50.42062 4.31320 2021 ft 144 kts 67°
2026-04-22 13:00 50.42448 4.32708 1918 ft 133 kts 68°
2026-04-22 13:01 50.42767 4.33977 1795 ft 119 kts 70°
2026-04-22 13:01 50.43098 4.35161 1606 ft 119 kts 67°
2026-04-22 13:01 50.43415 4.36331 1565 ft 118 kts 66°
2026-04-22 13:01 50.43738 4.37503 1422 ft 117 kts 66°
2026-04-22 13:02 50.44083 4.38657 1251 ft 116 kts 66°
2026-04-22 13:02 50.44412 4.39801 1178 ft 115 kts 66°
2026-04-22 13:02 50.44743 4.41021 1027 ft 125 kts 66°
2026-04-22 13:02 50.45103 4.42241 842 ft 125 kts 65°
2026-04-22 13:03 50.45498 4.43540 1212 ft 129 kts 65°
2026-04-22 13:03 50.45891 4.44766 1540 ft 122 kts 63°
2026-04-22 13:03 50.46294 4.45925 1534 ft 130 kts 60°
2026-04-22 13:03 50.46821 4.47334 1680 ft 159 kts 59°
2026-04-22 13:04 50.47421 4.48801 1941 ft 166 kts 59°
2026-04-22 13:04 50.48057 4.50447 2399 ft 183 kts 61°
2026-04-22 13:04 50.48714 4.52033 2795 ft 166 kts 56°
2026-04-22 13:04 50.49352 4.53503 2878 ft 161 kts 59°
2026-04-22 13:05 50.49874 4.55009 2903 ft 153 kts 59°
2026-04-22 13:05 50.50641 4.56176 2771 ft 162 kts 35°
2026-04-22 13:05 50.51728 4.56723 2553 ft 173 kts 11°
2026-04-22 13:05 50.52960 4.56457 2565 ft 189 kts 346°
2026-04-22 13:06 50.54134 4.55412 2504 ft 197 kts 329°
2026-04-22 13:06 50.55129 4.53928 2467 ft 198 kts 311°
2026-04-22 13:06 50.55721 4.51999 2491 ft 200 kts 288°
2026-04-22 13:06 50.55826 4.49823 2476 ft 202 kts 264°
2026-04-22 13:07 50.55443 4.47721 2497 ft 201 kts 248°
2026-04-22 13:07 50.54918 4.45669 2541 ft 202 kts 248°
2026-04-22 13:07 50.54389 4.43619 2494 ft 200 kts 247°
2026-04-22 13:07 50.53838 4.41582 2490 ft 211 kts 246°
2026-04-22 13:08 50.53241 4.39364 2556 ft 225 kts 246°
2026-04-22 13:08 50.52499 4.37185 2483 ft 226 kts 237°
2026-04-22 13:08 50.51687 4.35155 2481 ft 218 kts 236°
2026-04-22 13:08 50.50892 4.33163 2483 ft 213 kts 236°
2026-04-22 13:09 50.49868 4.31489 2419 ft 213 kts 205°
2026-04-22 13:09 50.48497 4.30845 2410 ft 203 kts 174°
2026-04-22 13:09 50.47144 4.31137 2481 ft 190 kts 159°
2026-04-22 13:09 50.45950 4.31917 2423 ft 182 kts 143°
2026-04-22 13:10 50.44952 4.33102 2398 ft 182 kts 132°
2026-04-22 13:10 50.44086 4.34571 2321 ft 181 kts 122°
2026-04-22 13:10 50.43420 4.36222 2010 ft 179 kts 108°
2026-04-22 13:10 50.43288 4.38058 1716 ft 165 kts 68°
2026-04-22 13:11 50.43969 4.39476 1383 ft 160 kts 50°
2026-04-22 13:11 50.44615 4.40777 1100 ft 147 kts 59°
2026-04-22 13:11 50.45118 4.42188 826 ft 150 kts 63°
2026-04-22 13:11 50.45514 4.43624 687 ft 138 kts 66°
2026-04-22 13:12 50.45884 4.44918 630 ft 121 kts 66°
2026-04-22 13:12 50.46186 4.45950 622 ft 83 kts 65°
2026-04-22 13:12 50.46360 4.46540 622 ft 43 kts 65°
2026-04-22 13:12 50.46464 4.46863 616 ft 25 kts 39°
2026-04-22 13:13 50.46583 4.46840 620 ft 11 kts 336°
2026-04-22 13:13 50.46665 4.46781 614 ft 15 kts 337°
2026-04-22 13:13 50.46745 4.46876 616 ft 18 kts 65°
2026-04-22 13:13 50.46800 4.47061 621 ft 18 kts 67°
2026-04-22 13:14 50.46846 4.47211 620 ft 13 kts 67°
2026-04-22 13:14 50.46890 4.47235 615 ft 8 kts 330°
2026-04-22 13:14 50.46909 4.47222 615 ft 0 kts 338°